sat.trackr.live / text

‹ back to catalog

DB SKYFORGE CORE TU

NORAD 68445 · 2026-067AF

PAYLOAD ACTIVE UNKNOWN

§ Identity

Operator
Country
US
Launch date
2026-03-30
Launch site
AFWTR
Launch vehicle
Mass (kg)
RCS (m²)

External: N2YO · Heavens-Above · Gunter

§ Orbital elements

Epoch: 2026-09-20T03:08:37.053024Z

Period
94.86 min
Inclination
97.4632°
Eccentricity
0.0006753
Mean motion
15.17996191 rev/d
Perigee alt
507.2 km
Apogee alt
516.6 km
Semi-major
6,890.0 km
B*
1.3469e-4
RAAN
220.0338°
Arg perigee
102.7760°
Mean anomaly
257.4229°
Rev number
2,633

§ Raw data

DB SKYFORGE CORE TU1 68445U 26067AF  26263.13098441  .00002672  00000+0  13469-3 0  99992 68445  97.4632 220.0338 0006753 102.7760 257.4229 15.17996191 26336

JSON: /api/v1/satellites/68445 · /tle

For live sub-satellite position, see the globe view (requires WebGL).

§ Visibility from observer

Set your observer location to see the next 7 days of passes ≥ 10°. The values pass through the URL so the page stays shareable.

No JS? Fill the form by hand. The geolocation button needs JavaScript.